Location: Temple Hill
(37.3073°N, 88.6303°W)
Time: 16:41:13
(UTC+00:00)

H-2A R/B - Pass Details

Date: 23 November 2020
Orbit: 578 x 654 km, 98.5° (Epoch: 19 January)

Event Time Altitude Azimuth Distance (km) Brightness Sun altitude
Rises 23:49:53 0° 358° (N) 2,821 5.3 -14.0°
Reaches altitude 10° 23:52:21 10° 344° (NNW) 1,926 4.6 -14.4°
Maximum altitude 23:55:39 23° 291° (WNW) 1,283 4.3 -15.1°
Drops below altitude 10° 23:58:58 10° 239° (WSW) 1,948 5.8 -15.7°
Sets 00:01:30 0° 225° (SW) 2,861 6.5 -16.2°
